Погода в Вачах

Россия / Республика Дагестан     42°04′21″N   47°12′52″E
темп.,
°C
ветер,
м/с
пор.,
м/с
влажн.,
%
обл.,
%
осадки,
мм/ч
давл.,
гПа
погр.,
м
9 мая, вс
вс900:00+5юз53390 0.0 101639
03:00+5юз545075 0.0 101441
06:00+7юз44645 0.0 101283
09:00+13юз354692 0.0 1009892
12:00+15юз49425 0.0 10071776
15:00+15зюз38408 0.0 10061931
18:00+12вюв2256100 0.0 1005136
21:00+6ссз1190100 9.6 1011163
10 мая, пн
пн1000:00+5ююз129394 10.6 1010150
03:00+3ююв1293100 11.1 101075
06:00−2ссв54100100 6.6 1015284
09:00−4ссв3399100 24.8 1018284
12:00−1всв229677 6.8 1017487
15:00−1всв129365 7.0 1018323
18:00−4ююз119629 0.1 102064
21:00−9ююз439013 0.1 102740
11 мая, вт
вт1100:00−9ююз328612 0.0 102525
03:00−8ююз328512 0.1 102322
06:00−3ююз33863 0.0 101841
09:00+1ю1210077 0.0 101383
12:00+2юз22100100 0.0 101361
15:00+2ююз3310092 0.1 101478
18:00+1юз339321 0.0 101537
21:00+1ююз43770 0.0 101728
12 мая, ср
ср1200:00+2ююз53791 0.0 101634
03:00+2ююз54780 0.0 101635
06:00+3ююз53822 0.0 101631
09:00+6юз339626 0.0 101653
12:00+9юз337834 0.0 1015336
15:00+11юз335513 0.0 1016637
18:00+8юз32650 0.0 101729
21:00+4юз53562 0.0 102032
13 мая, чт
чт1300:00+4юз43551 0.0 102028
03:00+4юз43560 0.0 101922
06:00+6юз32610 0.0 101933
09:00+13ююв01420 0.0 1017926
12:00+16ссв02340 0.0 10162149
15:00+16ссв22383 0.4 10162275
18:00+12ссв11662 0.4 101836
21:00+8юз33611 0.6 102021